Regional Weather Roundup
Issued by NWS

Home | Current Version | Previous Version | Graphics & Text | Print | Product List | Glossary On
Versions: 1 2 3 4 5 6 7 8 9 10 11 12 13 14 15 16 17 18 19 20 21 22 23 24 25 26 27 28 29 30 31 32 33 34 35 36 37 38 39 40 41 42 43 44 45 46 47 48 49 50
000
ASUS43 KMPX 162010
RWRMN
WEATHER ROUNDUP FOR MINNESOTA
NATIONAL WEATHER SERVICE TWIN CITIES/CHANHASSEN MN
300 PM CDT TUE SEP 16 2014


NOTE: "FAIR" INDICATES FEW OR NO CLOUDS BELOW 12,000 FEET WITH NO
SIGNIFICANT WEATHER AND/OR OBSTRUCTIONS TO VISIBILITY. N/A MEANS
CURRENT SKY AND/OR WEATHER CONDITIONS ARE NOT AVAILABLE.

MNZ060>063-068>070-162100-
   Twin Cities Metro

CITY           SKY/WX    TMP DP  RH WIND       PRES   REMARKS
TWIN CITIES    MOSUNNY   64  41  42 SW3       30.09F
ST PAUL        SUNNY     66  44  45 SW12      30.09F
CRYSTAL        SUNNY     67  42  40 SW12G17   30.07F
BLAINE         MOSUNNY   68  43  40 SW9       30.08F
LAKEVILLE      MOSUNNY   64  45  48 SW6       30.09F
EDEN PRAIRIE   SUNNY     67  44  43 SW10G18   30.08
SOUTH ST PAUL  SUNNY     67  41  39 SW6       30.09F
LAKE ELMO      FAIR      64  45  48 SW8       30.09F
$$
MNZ001>005-007-008-013>017-022>024-027-028-162100-
   Northwest Minnesota

CITY           SKY/WX    TMP DP  RH WIND       PRES   REMARKS
BEMIDJI        SUNNY     69  40  35 W12       30.00F
HALLOCK        MOSUNNY   70  43  37 CALM      29.95F
ROSEAU         MOSUNNY   61  48  63 CALM      29.98F
WARROAD        MOSUNNY   57  48  72 SW5       29.99F
THIEF RVR FALL SUNNY     70  43  37 W6        29.98F
CROOKSTON      SUNNY     72  43  35 SW9       29.98F
FOSSTON        SUNNY     72  43  35 SW9       30.00F
DETROIT LAKES  SUNNY     66  37  34 S7        30.04F
MOORHEAD       SUNNY     70  28  21 CALM      30.00F
PARK RAPIDS    SUNNY     68  38  33 SW9       30.02F
MAHNOMEN       FAIR      69  39  33 SW12G18   30.00F
$$
MNZ006-009>011-018-025>026-162100-
   North Central Minnesota

CITY           SKY/WX    TMP DP  RH WIND       PRES   REMARKS
BAUDETTE       CLOUDY    57  46  66 CALM      29.99F
FLAG ISLAND    MOSUNNY   59  50  72 S6        29.97S
INTL FALLS     CLOUDY    59  48  67 W3        29.99F
WASKISH        PTSUNNY   63  48  59 CALM      29.99F
BIG FORK       SUNNY     68  41  37 W10G17    29.99F
LONGVILLE      SUNNY     70  39  32 SW7       30.02S
GRAND RAPIDS   SUNNY     66  41  39 W10G17    30.01F
CRANE LAKE     CLOUDY    55  46  71 CALM      30.00S
ORR            CLOUDY    64  39  39 NW9G16    29.95F
COOK           MOSUNNY   66  45  45 SW12      29.98F
WALKER         FAIR      68  40  36 SW8G16    30.01F
$$
MNZ012-019>021-037-162100-
   Northeast Minnesota

CITY           SKY/WX    TMP DP  RH WIND       PRES   REMARKS
DULUTH         MOSUNNY   69  41  36 W17       30.01F
ELY            PTSUNNY   63  43  48 W7        29.97S
HIBBING        PTSUNNY   67  43  41 W10G18    30.00F
EVELETH        SUNNY     64  41  42 W13G18    30.00F
DULUTH HARBOR  SUNNY     70  43  37 SW18G24   30.01S
TWO HARBORS    SUNNY     68  45  42 W15       29.97F
SILVER BAY     SUNNY     70  50  49 SW7       29.95F
GRAND MARAIS     N/A     55  49  80 W7        29.95S
G MARAIS ARPRT SUNNY     59  41  51 W7        29.98R
$$
MNZ029>031-032-039>041-046>048-054>057-064-162100-
   West Central Minnesota

CITY           SKY/WX    TMP DP  RH WIND       PRES   REMARKS
FERGUS FALLS   SUNNY     70  34  26 S7        30.01F
WHEATON        SUNNY     68  43  40 S10       30.02F
MORRIS         PTSUNNY   70  43  37 S7        30.02F
ALEXANDRIA     SUNNY     65  42  43 S9        30.06F
ELBOW LAKE     FAIR      67  42  39 S10       30.02F
GLENWOOD       SUNNY     66  43  42 S7        30.05F
APPLETON       MOSUNNY   72  39  30 S6        30.02F
BENSON         MOSUNNY   68  43  40 SW5       30.03F
ORTONVILLE     PTSUNNY   70  45  40 S7        30.01F
MADISON        SUNNY     72  45  37 S10       30.02F
WILLMAR        FAIR      68  41  37 SW6       30.06F
$$
MNZ033>034-036-042>043-049>051-058-059-162100-
   Central Minnesota

CITY           SKY/WX    TMP DP  RH WIND       PRES   REMARKS
ST CLOUD       SUNNY     69  40  34 SW10      30.06F
SAUK CENTRE    FAIR      66  42  41 SW9       30.06F
PAYNESVILLE    SUNNY     63  42  45 SE8       30.06F
AITKIN         SUNNY     70  43  37 W3        30.03F
PINE RIVER     SUNNY     66  43  42 SW5       30.06F
BRAINERD       SUNNY     66  38  35 SW6       30.04F
STAPLES        SUNNY     66  37  34 W6        30.04F
LONG PRAIRIE   FAIR      64  39  39 S10       30.06F
LITTLE FALLS   SUNNY     64  36  34 S7        30.06S
LITCHFIELD     SUNNY     66  45  45 SW3       30.07F
BUFFALO        SUNNY     66  44  44 SW8       30.08F
MAPLE LAKE     SUNNY     67  47  49 SW6       30.08F
$$
MNZ037-044-045-052-053-162100-
   East Central Minnesota

CITY           SKY/WX    TMP DP  RH WIND       PRES   REMARKS
PRINCETON      SUNNY     70  43  37 S5        30.07F
MORA           SUNNY     64  43  45 SW8       30.08F
CAMBRIDGE      SUNNY     68  48  49 SW5       30.06F
RUSH CITY      SUNNY     66  41  40 SW6       30.07F
MOOSE LAKE     SUNNY     68  39  34 SW13      30.03F
HINCKLEY       FAIR      64  45  48 SW12      30.06F
CLOQUET        SUNNY     68  36  30 W14G22    30.02F
MCGREGOR       SUNNY     66  39  37 SW6       30.04F
$$
MNZ071>073-080-081-089-090-097-098-162100-
   Southwest Minnesota

CITY           SKY/WX    TMP DP  RH WIND       PRES   REMARKS
MONTEVIDEO     SUNNY     72  45  37 SW7       30.04F
GRANITE FALLS  SUNNY     69  45  41 SE9       30.06F
CANBY          PTSUNNY   70  48  45 S8        30.03F
MARSHALL       SUNNY     68  45  42 S10       30.04F
REDWOOD FALLS  SUNNY     68  44  42 S10       30.06F
OLIVIA         SUNNY     70  46  43 S7        30.05F
PIPESTONE      SUNNY     68  45  42 SW14      30.06S
WINDOM         SUNNY     66  45  45 S10       30.07F
WORTHINGTON    SUNNY     64  45  48 S12       30.08F
JACKSON        SUNNY     66  43  42 S12       30.10F
TRACY          SUNNY     69  46  44 SW9       30.06F
SLAYTON        SUNNY     67  42  41 CALM      30.07F
$$
MNZ065>067-074>077-082>085-091>093-162100-
   South Central Minnesota

CITY           SKY/WX    TMP DP  RH WIND       PRES   REMARKS
MANKATO        SUNNY     66  41  39 SW13      30.08F
NEW ULM        SUNNY     66  45  45 W8        30.07F
ST JAMES       SUNNY     66  43  42 S8        30.09F
FAIRMONT       SUNNY     66  41  39 SW10      30.09F
GLENCOE        SUNNY     68  40  36 SW6       30.07F
FARIBAULT      SUNNY     70  36  28 SW8       30.10F
OWATONNA       SUNNY     66  41  39 SW7       30.10F
WASECA         SUNNY     63  34  34 SW9       30.11F
ALBERT LEA     SUNNY     64  41  42 SW7       30.10F
$$
MNZ078>079-086>088-094>096-162100-
   Southeast Minnesota

CITY           SKY/WX    TMP DP  RH WIND       PRES   REMARKS
ROCHESTER      SUNNY     65  42  43 W10G16    30.12F
RED WING       SUNNY     68  37  32 SW7       30.08F
STANTON        SUNNY     66  44  44 SW6       30.09F
DODGE CENTER   SUNNY     64  43  45 W10G16    30.11F
WINONA         MOSUNNY   66  43  42 W3        30.11F
AUSTIN         SUNNY     64  43  45 W5        30.11F
PRESTON        MOSUNNY   63  49  60 SW7G16    30.12F
$$
ABBREVIATIONS USED IN REMARKS
   TC - TEMPERATURES IN CELSIUS
  WCI - WIND CHILL INDEX
   HX - HEAT INDEX
  VSB - VISIBILITY
$$



USA.gov is the U.S. government's official web portal to all federal, state and local government web resources and services.